Current Version              Previous Version:    01  02  03  04  05  06  07  08  09  10  11  12  13  14  15  16  17  18  19  20  21  22  23  24  25  26  27  28  29  30  
   31  32  33  34  35  36  37  38  39  40  41  42  43  44  45  46  47  48  49  50  51  52  53  54  55  56  57  58  59  60  

[Printable]
294
ASUS44 KEWX 301902
RWRTX
SOUTH TEXAS REGIONAL WEATHER ROUNDUP
NATIONAL WEATHER SERVICE AUSTIN/SAN ANTONIO TX
200 PM CDT TUE SEP 30 2014

NOTE: "FAIR" INDICATED FEW OR NO CLOUDS BELOW 12,000 FEET WITH NO
SIGNIFICANT WEATHER AND/OR OBSTRUCTIONS TO VISIBILITY.

* - THESE STATIONS ARE NOT NWS OR FAA STATIONS...AND ARE NOT SUBJECT
    TO NWS AND FAA QUALITY CONTROL.

TXZ171-172-183>190-302000-
TEXAS HILL COUNTRY AND EDWARDS PLATEAU

CITY           SKY/WX    TMP DP  RH WIND       PRES   REMARKS
JUNCTION       MOSUNNY   82  60  47 S8        29.87F
*LLANO         MOSUNNY   88  63  42 SE6       29.89F
BURNET         SUNNY     86  61  42 E6        29.88F
*HORSESHOE BAY MOSUNNY   88  60  39 SE3       29.86F
*KERRVILLE     MOSUNNY   83  67  58 SE3       29.89F
*FREDERICKSBRG PTSUNNY   82  63  53 SE5       29.88F
*ROCKSPRINGS   MOSUNNY   82  63  51 S9        29.94F
*BOERNE STAGE  MOSUNNY   86  63  45 SE7       29.88F
*CASTROVILLE   MOSUNNY   88  63  43 E6        29.86F
HONDO          PTSUNNY   87  65  47 VRB5      29.87F
*UVALDE        MOSUNNY   87  69  55 SE12      29.86F HX  91
DEL RIO        SUNNY     86  66  51 SE13      29.82F
LAUGHLIN AFB   SUNNY     86  69  56 S10       29.84F HX  90
CARRIZO SPRGS  MOSUNNY   86  68  54 S7        29.83F
$$

TXZ173-191>194-202-209-217>225-228-302000-
CENTRAL AND SOUTH CENTRAL TEXAS

CITY           SKY/WX    TMP DP  RH WIND       PRES   REMARKS
GEORGETOWN     MOSUNNY   86  64  48 S7        29.85F
AUSTIN/BERGSTM PTSUNNY   88  68  51 E3        29.84F HX  91
AUSTIN/MABRY   PTSUNNY   88  66  48 VRB3      29.85F HX  90
*AUSTIN/EXEC   SUNNY     86  66  51 SW5       29.85F
*LAGO VISTA    SUNNY     86  60  40 SW6       29.87F
SAN MARCOS     MOSUNNY   88  64  45 E6        29.85F
NEW BRAUNFELS  MOSUNNY   88  65  46 E5        29.83F HX  90
RANDOLPH AFB   NOT AVBL
PT SAN ANTONIO SUNNY     87  65  48 VRB3      29.84F
SAN ANTONIO    PTSUNNY   89  64  43 VRB5      29.85F HX  90
STINSON FIELD  MOSUNNY   89  66  46 E6        29.83F HX  91
*PLEASANTON    MOSUNNY   89  65  46 E6        29.84F HX  91
*LA GRANGE     MOSUNNY   88  73  60 E6        29.82F HX  96
*GIDDINGS      MOSUNNY   86  69  55 SE5       29.89F HX  90
*GONZALES      PTSUNNY   88  71  57 CALM      29.83F HX  94
$$

TXZ163>164-176>182-195>201-210>213-226-227-235-302000-
SOUTHEAST TEXAS

CITY           SKY/WX    TMP DP  RH WIND       PRES   REMARKS
COLLEGE STN    SUNNY     85  69  58 VRB5      29.84F
*BRYAN         PTSUNNY  N/A N/A N/A W5        29.84F
*CALDWELL      MOSUNNY   84  70  61 CALM      29.88F
*CROCKETT      MOSUNNY   88  73  62 SE5       29.88F HX  96
*BRENHAM       MOSUNNY   87  70  56 S3        29.84F HX  92
HUNTSVILLE     LGT RAIN  87  69  54 VRB6      29.84F HX  91
CONROE         PTSUNNY   86  71  60 SE7       29.84F HX  91
HOUSTON BUSH   PTSUNNY   86  72  62 VRB7      29.83F HX  92
HOUSTON HOBBY  MOSUNNY   86  71  60 E5        29.83F HX  91
*HOUSTON SW AP PTSUNNY   78  65  64 CALM      29.83F
PEARLAND       CLOUDY    87  73  62 E9        29.85F HX  94
HOUSTON HOOKS  CLOUDY    86  70  58 SE5       29.83F HX  90
ELLINGTON FLD  MOSUNNY   86  73  66 E7        29.85F HX  93
SUGAR LAND     MOSUNNY   87  71  58 E5        29.82F HX  93
*HOUSTON EXEC  MOSUNNY   86  86 100 SE7       29.84F HX 112
*CLEVELAND MUN MOSUNNY   87  75  65 SE5       29.84F HX  96
*WHARTON       MOSUNNY   87  71  57 NW3       29.84F HX  93
*COLUMBUS      NOT AVBL
$$

TXZ214>216-236>238-302000-
THE UPPER TEXAS COAST

CITY           SKY/WX    TMP DP  RH WIND       PRES   REMARKS
*ORANGE        PTSUNNY   85  70  60 SE5       29.86F
PORT ARTHUR    MOSUNNY   87  72  60 SE9       29.84F HX  93
GALVESTON      PTSUNNY   84  76  76 E9        29.85F HX  93
ANGLETON       LGT RAIN  84  75  74 VRB7      29.83F HX  92
*BAY CITY      HVY RAIN N/A N/A N/A NW8       29.83F
PALACIOS       CLOUDY    83  75  77 W3        29.82F HX  90
$$

TXZ229>234-239>247-302000-
TEXAS COASTAL BEND AND RIO GRANDE PLAINS

CITY           SKY/WX    TMP DP  RH WIND       PRES   REMARKS
VICTORIA       MOSUNNY   88  72  58 E6        29.83F HX  94
*BEEVILLE      MOSUNNY   90  69  50 SE6       29.82F HX  95
ROCKPORT       MOSUNNY   87  75  67 E9        29.81F HX  96
*PORT ARANSAS  MOSUNNY   83  74  75 E8        29.82F
*PORT LAVACA   MOSUNNY   84  73  70 SE6       29.83F HX  90
*INGLESIDE     PTSUNNY   87  72  61 E12G17    29.82F HX  94
CORPUS CHRISTI PTSUNNY   86  72  62 NE8       29.81F HX  92
CORPUS NAS     NOT AVBL
*ROBSTOWN      CLOUDY    87  74  65 E8        29.83F HX  94
ALICE          CLOUDY    86  73  65 E6        29.81F HX  93
KINGSVILLE NAS NOT AVBL
COTULLA        MOSUNNY   88  66  48 VRB7      29.83F HX  90
*FAITH RANCH   MOSUNNY   86  68  54 SE8       29.85F
LAREDO         MOSUNNY   89  69  51 E7        29.84F HX  93
$$

TXZ248>255-302000-
DEEP SOUTH TEXAS

CITY           SKY/WX    TMP DP  RH WIND       PRES   REMARKS
BROWNSVILLE    SUNNY     88  78  72 SW7       29.81F HX 101
PORT ISABEL    MOSUNNY   86  75  69 E6        29.80F HAZE    HX  95
*SOUTH PADRE   SUNNY     88  77  70 E5        29.82F HX 100
HARLINGEN      PTSUNNY   85  76  74 CALM      29.80F HX  94
*HEBBRONVILLE    N/A     85  71  63 N3        29.85F HX  90
MCALLEN        PTSUNNY   84  74  71 SE3       29.81F HX  91
*WESLACO       CLOUDY    84  72  67 CALM      29.80F HX  90
FALFURRIAS     PTSUNNY   87  73  64 E5        29.81F HX  94
EDINBURG       CLOUDY    86  71  60 CALM      29.81F HX  92
*ZAPATA        PTSUNNY   90  68  48 NE5       29.80F HX  94
$$

TXZ213>215-236>238-242>244-246-247-251-254-255-302000-
CMAN STATIONS

STATION/POSITION TIME  TEMP    WIND        PRES    WAVE
                       AIR SEA DIR/SP/G            HT/PER
                 (UTC) (F)     (DEG/KT/KT) (MB)    (FT/S)
SABINE PASS      1800   81 80  130/  8/ 10 1011.2
SEA RIM ST PARK  1800   81     110/ 10/ 11 1011.9
NORTH JETTY/GLS  1800   81 80  130/  7/  9   N/A
EAGLE POINT      1800   81 82  110/  7/  8 1011.1
MORGANS POINT    1800   83     130/  6/  9 1010.9
MISSION/ARANSAS  1800          100/  9     1012.0
PORT O`CONNOR    1800           60/  8/  9   N/A
PORT ARANSAS     1800   78 80   30/  7/  8 1011.0
MALAQUITE BEACH  1800   80 81   80/  9/ 10 1009.2
BAFFIN BAY       1800   81 83   70/  8/ 10 1009.9
PORT ISABEL      1800   86 81   CALM  /  7 1010.0
$$

GMZ080-GMZ150>470-302000-
OFFSHORE BUOY REPORTS

STATION/POSITION TIME  TEMP    WIND        PRES    WAVE
                       AIR SEA DIR/SP/G            HT/PER
                 (UTC) (F)     (DEG/KT/KT) (MB)    (FT/S)
20 E GALVESTON   1900   81 82  110/  8/ 10 1010.3    1/ 5
90 E PT ARANSAS  1900   82 85  100/  6/  8 1010.0    2/ 6
35 NE PT MANSFLD 1800   83 88   CALM  /  2 1009.7    2/ 5
200 E PT ISABEL  1800   83 84  190/  8/ 12 1011.0    1/ 6
$$